Year,Month,Day,Hour,Minute,Value (Times are PST for temperature in C)
2018,06,11,00,00,7.80
2018,06,11,00,01,7.70
2018,06,11,00,02,7.70
2018,06,11,00,03,7.70
2018,06,11,00,04,7.70
2018,06,11,00,05,7.70
2018,06,11,00,06,7.60
2018,06,11,00,07,7.60
2018,06,11,00,08,7.60
2018,06,11,00,09,7.60
2018,06,11,00,10,7.60
2018,06,11,00,11,7.60
2018,06,11,00,12,7.60
2018,06,11,00,13,7.60
2018,06,11,00,14,7.60
2018,06,11,00,15,7.60
2018,06,11,00,16,7.60
2018,06,11,00,17,7.60
2018,06,11,00,18,7.60
2018,06,11,00,19,7.60
2018,06,11,00,20,7.60
2018,06,11,00,21,7.60
2018,06,11,00,22,7.60
2018,06,11,00,23,7.60
2018,06,11,00,24,7.60
2018,06,11,00,25,7.60
2018,06,11,00,26,7.60
2018,06,11,00,27,7.60
2018,06,11,00,28,7.60
2018,06,11,00,29,7.60
2018,06,11,00,30,7.60
2018,06,11,00,31,7.60
2018,06,11,00,32,7.60
2018,06,11,00,33,7.60
2018,06,11,00,34,7.60
2018,06,11,00,35,7.60
2018,06,11,00,36,7.70
2018,06,11,00,37,7.70
2018,06,11,00,38,7.70
2018,06,11,00,39,7.70
2018,06,11,00,40,7.70
2018,06,11,00,41,7.70
2018,06,11,00,42,7.70
2018,06,11,00,43,7.70
2018,06,11,00,44,7.70
2018,06,11,00,45,7.70
2018,06,11,00,46,7.70
2018,06,11,00,47,7.70
2018,06,11,00,48,7.80
2018,06,11,00,49,7.70
2018,06,11,00,50,7.70
2018,06,11,00,51,7.70
2018,06,11,00,52,7.70
2018,06,11,00,53,7.70
2018,06,11,00,54,7.70
2018,06,11,00,55,7.70
2018,06,11,00,56,7.70
2018,06,11,00,57,7.70
2018,06,11,00,58,7.70
2018,06,11,00,59,7.80
2018,06,11,01,00,7.80
2018,06,11,01,01,7.80
2018,06,11,01,02,7.80
2018,06,11,01,03,7.80
2018,06,11,01,04,7.80
2018,06,11,01,05,7.80
2018,06,11,01,06,7.80
2018,06,11,01,07,7.80
2018,06,11,01,08,7.80
2018,06,11,01,09,7.80
2018,06,11,01,10,7.90
2018,06,11,01,11,7.90
2018,06,11,01,12,7.90
2018,06,11,01,13,7.90
2018,06,11,01,14,7.90
2018,06,11,01,15,7.90
2018,06,11,01,16,7.90
2018,06,11,01,17,7.90
2018,06,11,01,18,7.90
2018,06,11,01,19,7.90
2018,06,11,01,20,7.90
2018,06,11,01,21,7.90
2018,06,11,01,22,7.90
2018,06,11,01,23,7.90
2018,06,11,01,24,7.90
2018,06,11,01,25,7.90
2018,06,11,01,26,7.90
2018,06,11,01,27,7.90
2018,06,11,01,28,7.90
2018,06,11,01,29,7.90
2018,06,11,01,30,7.90
2018,06,11,01,31,7.90
2018,06,11,01,32,7.90
2018,06,11,01,33,8.00
2018,06,11,01,34,8.00
2018,06,11,01,35,8.00
2018,06,11,01,36,8.10
2018,06,11,01,37,8.10
2018,06,11,01,38,8.10
2018,06,11,01,39,8.10
2018,06,11,01,40,8.10
2018,06,11,01,41,8.10
2018,06,11,01,42,8.10
2018,06,11,01,43,8.10
2018,06,11,01,44,8.10
2018,06,11,01,45,8.10
2018,06,11,01,46,8.20
2018,06,11,01,47,8.20
2018,06,11,01,48,8.20
2018,06,11,01,49,8.20
2018,06,11,01,50,8.20
2018,06,11,01,51,8.20
2018,06,11,01,52,8.20
2018,06,11,01,53,8.20
2018,06,11,01,54,8.20
2018,06,11,01,55,8.20
2018,06,11,01,56,8.20
2018,06,11,01,57,8.20
2018,06,11,01,58,8.20
2018,06,11,01,59,8.20
2018,06,11,02,00,8.20
2018,06,11,02,01,8.20
2018,06,11,02,02,8.20
2018,06,11,02,03,8.20
2018,06,11,02,04,8.20
2018,06,11,02,05,8.20
2018,06,11,02,06,8.20
2018,06,11,02,07,8.20
2018,06,11,02,08,8.20
2018,06,11,02,09,8.20
2018,06,11,02,10,8.20
2018,06,11,02,11,8.20
2018,06,11,02,12,8.20
2018,06,11,02,13,8.20
2018,06,11,02,14,8.20
2018,06,11,02,15,8.20
2018,06,11,02,16,8.20
2018,06,11,02,17,8.20
2018,06,11,02,18,8.20
2018,06,11,02,19,8.20
2018,06,11,02,20,8.20
2018,06,11,02,21,8.20
2018,06,11,02,22,8.20
2018,06,11,02,23,8.20
2018,06,11,02,24,8.20
2018,06,11,02,25,8.20
2018,06,11,02,26,8.20
2018,06,11,02,27,8.20
2018,06,11,02,28,8.20
2018,06,11,02,29,8.20
2018,06,11,02,30,8.20
2018,06,11,02,31,8.20
2018,06,11,02,32,8.20
2018,06,11,02,33,8.20
2018,06,11,02,34,8.20
2018,06,11,02,35,8.20
2018,06,11,02,36,8.20
2018,06,11,02,37,8.20
2018,06,11,02,38,8.20
2018,06,11,02,39,8.20
2018,06,11,02,40,8.20
2018,06,11,02,41,8.20
2018,06,11,02,42,8.20
2018,06,11,02,43,8.20
2018,06,11,02,44,8.20
2018,06,11,02,45,8.20
2018,06,11,02,46,8.20
2018,06,11,02,47,8.20
2018,06,11,02,48,8.20
2018,06,11,02,49,8.20
2018,06,11,02,50,8.20
2018,06,11,02,51,8.20
2018,06,11,02,52,8.20
2018,06,11,02,53,8.20
2018,06,11,02,54,8.20
2018,06,11,02,55,8.20
2018,06,11,02,56,8.20
2018,06,11,02,57,8.20
2018,06,11,02,58,8.20
2018,06,11,02,59,8.20
2018,06,11,03,00,8.20
2018,06,11,03,01,8.20
2018,06,11,03,02,8.20
2018,06,11,03,03,8.20
2018,06,11,03,04,8.30
2018,06,11,03,05,8.30
2018,06,11,03,06,8.30
2018,06,11,03,07,8.30
2018,06,11,03,08,8.30
2018,06,11,03,09,8.30
2018,06,11,03,10,8.30
2018,06,11,03,11,8.30
2018,06,11,03,12,8.30
2018,06,11,03,13,8.30
2018,06,11,03,14,8.30
2018,06,11,03,15,8.30
2018,06,11,03,16,8.30
2018,06,11,03,17,8.30
2018,06,11,03,18,8.30
2018,06,11,03,19,8.30
2018,06,11,03,20,8.30
2018,06,11,03,21,8.30
2018,06,11,03,22,8.30
2018,06,11,03,23,8.30
2018,06,11,03,24,8.30
2018,06,11,03,25,8.30
2018,06,11,03,26,8.30
2018,06,11,03,27,8.30
2018,06,11,03,28,8.30
2018,06,11,03,29,8.30
2018,06,11,03,30,8.30
2018,06,11,03,31,8.30
2018,06,11,03,32,8.30
2018,06,11,03,33,8.30
2018,06,11,03,34,8.30
2018,06,11,03,35,8.30
2018,06,11,03,36,8.30
2018,06,11,03,37,8.30
2018,06,11,03,38,8.30
2018,06,11,03,39,8.30
2018,06,11,03,40,8.30
2018,06,11,03,41,8.30
2018,06,11,03,42,8.30
2018,06,11,03,43,8.30
2018,06,11,03,44,8.30
2018,06,11,03,45,8.30
2018,06,11,03,46,8.30
2018,06,11,03,47,8.30
2018,06,11,03,48,8.30
2018,06,11,03,49,8.30
2018,06,11,03,50,8.30
2018,06,11,03,51,8.30
2018,06,11,03,52,8.30
2018,06,11,03,53,8.30
2018,06,11,03,54,8.30
2018,06,11,03,55,8.30
2018,06,11,03,56,8.30
2018,06,11,03,57,8.30
2018,06,11,03,58,8.30
2018,06,11,03,59,8.30
2018,06,11,04,00,8.30
2018,06,11,04,01,8.30
2018,06,11,04,02,8.30
2018,06,11,04,03,8.30
2018,06,11,04,04,8.30
2018,06,11,04,05,8.30
2018,06,11,04,06,8.30
2018,06,11,04,07,8.30
2018,06,11,04,08,8.30
2018,06,11,04,09,8.30
2018,06,11,04,10,8.30
2018,06,11,04,11,8.30
2018,06,11,04,12,8.30
2018,06,11,04,13,8.30
2018,06,11,04,14,8.30
2018,06,11,04,15,8.30
2018,06,11,04,16,8.30
2018,06,11,04,17,8.30
2018,06,11,04,18,8.30
2018,06,11,04,19,8.20
2018,06,11,04,20,8.20
2018,06,11,04,21,8.20
2018,06,11,04,22,8.20
2018,06,11,04,23,8.20
2018,06,11,04,24,8.20
2018,06,11,04,25,8.20
2018,06,11,04,26,8.20
2018,06,11,04,27,8.20
2018,06,11,04,28,8.20
2018,06,11,04,29,8.20
2018,06,11,04,30,8.10
2018,06,11,04,31,8.20
2018,06,11,04,32,8.20
2018,06,11,04,33,8.20
2018,06,11,04,34,8.20
2018,06,11,04,35,8.20
2018,06,11,04,36,8.20
2018,06,11,04,37,8.20
2018,06,11,04,38,8.20
2018,06,11,04,39,8.20
2018,06,11,04,40,8.20
2018,06,11,04,41,8.20
2018,06,11,04,42,8.20
2018,06,11,04,43,8.20
2018,06,11,04,44,8.20
2018,06,11,04,45,8.20
2018,06,11,04,46,8.20
2018,06,11,04,47,8.20
2018,06,11,04,48,8.20
2018,06,11,04,49,8.20
2018,06,11,04,50,8.20
2018,06,11,04,51,8.20
2018,06,11,04,52,8.10
2018,06,11,04,53,8.20
2018,06,11,04,54,8.20
2018,06,11,04,55,8.20
2018,06,11,04,56,8.20
2018,06,11,04,57,8.20
2018,06,11,04,58,8.20
2018,06,11,04,59,8.20
2018,06,11,05,00,8.20
2018,06,11,05,01,8.20
2018,06,11,05,02,8.20
2018,06,11,05,03,8.20
2018,06,11,05,04,8.20
2018,06,11,05,05,8.20
2018,06,11,05,06,8.20
2018,06,11,05,07,8.20
2018,06,11,05,08,8.20
2018,06,11,05,09,8.20
2018,06,11,05,10,8.20
2018,06,11,05,11,8.20
2018,06,11,05,12,8.20
2018,06,11,05,13,8.20
2018,06,11,05,14,8.20
2018,06,11,05,15,8.20
2018,06,11,05,16,8.20
2018,06,11,05,17,8.20
2018,06,11,05,18,8.20
2018,06,11,05,19,8.20
2018,06,11,05,20,8.20
2018,06,11,05,21,8.20
2018,06,11,05,22,8.20
2018,06,11,05,23,8.20
2018,06,11,05,24,8.20
2018,06,11,05,25,8.20
2018,06,11,05,26,8.20
2018,06,11,05,27,8.30
2018,06,11,05,28,8.20
2018,06,11,05,29,8.20
2018,06,11,05,30,8.20
2018,06,11,05,31,8.30
2018,06,11,05,32,8.20
2018,06,11,05,33,8.20
2018,06,11,05,34,8.20
2018,06,11,05,35,8.20
2018,06,11,05,36,8.20
2018,06,11,05,37,8.20
2018,06,11,05,38,8.20
2018,06,11,05,39,8.20
2018,06,11,05,40,8.20
2018,06,11,05,41,8.20
2018,06,11,05,42,8.30
2018,06,11,05,43,8.30
2018,06,11,05,44,8.30
2018,06,11,05,45,8.30
2018,06,11,05,46,8.30
2018,06,11,05,47,8.30
2018,06,11,05,48,8.30
2018,06,11,05,49,8.30
2018,06,11,05,50,8.30
2018,06,11,05,51,8.30
2018,06,11,05,52,8.30
2018,06,11,05,53,8.30
2018,06,11,05,54,8.30
2018,06,11,05,55,8.30
2018,06,11,05,56,8.30
2018,06,11,05,57,8.30
2018,06,11,05,58,8.30
2018,06,11,05,59,8.30
2018,06,11,06,00,8.30
2018,06,11,06,01,8.30
2018,06,11,06,02,8.30
2018,06,11,06,03,8.40
2018,06,11,06,04,8.40
2018,06,11,06,05,8.40
2018,06,11,06,06,8.40
2018,06,11,06,07,8.40
2018,06,11,06,08,8.40
2018,06,11,06,09,8.40
2018,06,11,06,10,8.40
2018,06,11,06,11,8.40
2018,06,11,06,12,8.40
2018,06,11,06,13,8.40
2018,06,11,06,14,8.50
2018,06,11,06,15,8.50
2018,06,11,06,16,8.50
2018,06,11,06,17,8.50
2018,06,11,06,18,8.50
2018,06,11,06,19,8.50
2018,06,11,06,20,8.50
2018,06,11,06,21,8.50
2018,06,11,06,22,8.50
2018,06,11,06,23,8.50
2018,06,11,06,24,8.50
2018,06,11,06,25,8.50
2018,06,11,06,26,8.60
2018,06,11,06,27,8.60
2018,06,11,06,28,8.60
2018,06,11,06,29,8.60
2018,06,11,06,30,8.60
2018,06,11,06,31,8.60
2018,06,11,06,32,8.60
2018,06,11,06,33,8.60
2018,06,11,06,34,8.60
2018,06,11,06,35,8.70
2018,06,11,06,36,8.70
2018,06,11,06,37,8.70
2018,06,11,06,38,8.70
2018,06,11,06,39,8.70
2018,06,11,06,40,8.70
2018,06,11,06,41,8.70
2018,06,11,06,42,8.70
2018,06,11,06,43,8.70
2018,06,11,06,44,8.70
2018,06,11,06,45,8.70
2018,06,11,06,46,8.70
2018,06,11,06,47,8.70
2018,06,11,06,48,8.80
2018,06,11,06,49,8.80
2018,06,11,06,50,8.80
2018,06,11,06,51,8.80
2018,06,11,06,52,8.80
2018,06,11,06,53,8.80
2018,06,11,06,54,8.80
2018,06,11,06,55,8.80
2018,06,11,06,56,8.80
2018,06,11,06,57,8.80
2018,06,11,06,58,8.80
2018,06,11,06,59,8.80
2018,06,11,07,00,8.80
2018,06,11,07,01,8.80
2018,06,11,07,02,8.80
2018,06,11,07,03,8.80
2018,06,11,07,04,8.80
2018,06,11,07,05,8.80
2018,06,11,07,06,8.90
2018,06,11,07,07,8.90
2018,06,11,07,08,8.90
2018,06,11,07,09,8.90
2018,06,11,07,10,8.90
2018,06,11,07,11,8.90
2018,06,11,07,12,8.90
2018,06,11,07,13,9.00
2018,06,11,07,14,9.00
2018,06,11,07,15,9.00
2018,06,11,07,16,9.10
2018,06,11,07,17,9.10
2018,06,11,07,18,9.10
2018,06,11,07,19,9.10
2018,06,11,07,20,9.10
2018,06,11,07,21,9.10
2018,06,11,07,22,9.10
2018,06,11,07,23,9.10
2018,06,11,07,24,9.10
2018,06,11,07,25,9.10
2018,06,11,07,26,9.10
2018,06,11,07,27,9.10
2018,06,11,07,28,9.10
2018,06,11,07,29,9.10
2018,06,11,07,30,9.10
2018,06,11,07,31,9.10
2018,06,11,07,32,9.10
2018,06,11,07,33,9.10
2018,06,11,07,34,9.10
2018,06,11,07,35,9.10
2018,06,11,07,36,9.10
2018,06,11,07,37,9.10
2018,06,11,07,38,9.10
2018,06,11,07,39,9.10
2018,06,11,07,40,9.10
2018,06,11,07,41,9.10
2018,06,11,07,42,9.20
2018,06,11,07,43,9.20
2018,06,11,07,44,9.20
2018,06,11,07,45,9.20
2018,06,11,07,46,9.20
2018,06,11,07,47,9.20
2018,06,11,07,48,9.30
2018,06,11,07,49,9.30
2018,06,11,07,50,9.30
2018,06,11,07,51,9.30
2018,06,11,07,52,9.30
2018,06,11,07,53,9.30
2018,06,11,07,54,9.30
2018,06,11,07,55,9.30
2018,06,11,07,56,9.30
2018,06,11,07,57,9.30
2018,06,11,07,58,9.30
2018,06,11,07,59,9.40
2018,06,11,08,00,9.40
2018,06,11,08,01,9.40
2018,06,11,08,02,9.40
2018,06,11,08,03,9.40
2018,06,11,08,04,9.50
2018,06,11,08,05,9.50
2018,06,11,08,06,9.50
2018,06,11,08,07,9.60
2018,06,11,08,08,9.60
2018,06,11,08,09,9.60
2018,06,11,08,10,9.60
2018,06,11,08,11,9.60
2018,06,11,08,12,9.60
2018,06,11,08,13,9.60
2018,06,11,08,14,9.60
2018,06,11,08,15,9.60
2018,06,11,08,16,9.60
2018,06,11,08,17,9.60
2018,06,11,08,18,9.60
2018,06,11,08,19,9.60
2018,06,11,08,20,9.60
2018,06,11,08,21,9.60
2018,06,11,08,22,9.60
2018,06,11,08,23,9.60
2018,06,11,08,24,9.70
2018,06,11,08,25,9.70
2018,06,11,08,26,9.70
2018,06,11,08,27,9.70
2018,06,11,08,28,9.70
2018,06,11,08,29,9.70
2018,06,11,08,30,9.80
2018,06,11,08,31,9.70
2018,06,11,08,32,9.70
2018,06,11,08,33,9.70
2018,06,11,08,34,9.70
2018,06,11,08,35,9.70
2018,06,11,08,36,9.80
2018,06,11,08,37,9.80
2018,06,11,08,38,9.80
2018,06,11,08,39,9.80
2018,06,11,08,40,9.80
2018,06,11,08,41,9.80
2018,06,11,08,42,9.80
2018,06,11,08,43,9.90
2018,06,11,08,44,9.90
2018,06,11,08,45,9.90
2018,06,11,08,46,9.90
2018,06,11,08,47,10.00
2018,06,11,08,48,10.00
2018,06,11,08,49,10.00
2018,06,11,08,50,10.10
2018,06,11,08,51,10.10
2018,06,11,08,52,10.10
2018,06,11,08,53,10.10
2018,06,11,08,54,10.10
2018,06,11,08,55,10.20
2018,06,11,08,56,10.20
2018,06,11,08,57,10.20
2018,06,11,08,58,10.20
2018,06,11,08,59,10.30
2018,06,11,09,00,10.30
2018,06,11,09,01,10.30
2018,06,11,09,02,10.30
2018,06,11,09,03,10.30
2018,06,11,09,04,10.30
2018,06,11,09,05,10.30
2018,06,11,09,06,10.30
2018,06,11,09,07,10.30
2018,06,11,09,08,10.40
2018,06,11,09,09,10.40
2018,06,11,09,10,10.40
2018,06,11,09,11,10.40
2018,06,11,09,12,10.40
2018,06,11,09,13,10.40
2018,06,11,09,14,10.40
2018,06,11,09,15,10.50
2018,06,11,09,16,10.50
2018,06,11,09,17,10.60
2018,06,11,09,18,10.60
2018,06,11,09,19,10.60
2018,06,11,09,20,10.70
2018,06,11,09,21,10.70
2018,06,11,09,22,10.70
2018,06,11,09,23,10.70
2018,06,11,09,24,10.80
2018,06,11,09,25,10.80
2018,06,11,09,26,10.80
2018,06,11,09,27,10.80
2018,06,11,09,28,10.80
2018,06,11,09,29,10.80
2018,06,11,09,30,10.80
2018,06,11,09,31,10.80
2018,06,11,09,32,10.80
2018,06,11,09,33,10.90
2018,06,11,09,34,11.00
2018,06,11,09,35,11.00
2018,06,11,09,36,11.00
2018,06,11,09,37,11.00
2018,06,11,09,38,11.00
2018,06,11,09,39,10.90
2018,06,11,09,40,10.90
2018,06,11,09,41,10.90
2018,06,11,09,42,10.90
2018,06,11,09,43,10.90
2018,06,11,09,44,10.90
2018,06,11,09,45,11.00
2018,06,11,09,46,11.00
2018,06,11,09,47,11.10
2018,06,11,09,48,11.10
2018,06,11,09,49,11.20
2018,06,11,09,50,11.20
2018,06,11,09,51,11.20
2018,06,11,09,52,11.20
2018,06,11,09,53,11.20
2018,06,11,09,54,11.30
2018,06,11,09,55,11.30
2018,06,11,09,56,11.40
2018,06,11,09,57,11.30
2018,06,11,09,58,11.30
2018,06,11,09,59,11.30
2018,06,11,10,00,11.40
2018,06,11,10,01,11.40
2018,06,11,10,02,11.50
2018,06,11,10,03,11.60
2018,06,11,10,04,11.60
2018,06,11,10,05,11.60
2018,06,11,10,06,11.60
2018,06,11,10,07,11.60
2018,06,11,10,08,11.60
2018,06,11,10,09,11.70
2018,06,11,10,10,11.70
2018,06,11,10,11,11.80
2018,06,11,10,12,11.90
2018,06,11,10,13,11.90
2018,06,11,10,14,12.00
2018,06,11,10,15,12.10
2018,06,11,10,16,12.20
2018,06,11,10,17,12.20
2018,06,11,10,18,12.20
2018,06,11,10,19,12.20
2018,06,11,10,20,12.20
2018,06,11,10,21,12.10
2018,06,11,10,22,12.10
2018,06,11,10,23,12.00
2018,06,11,10,24,11.90
2018,06,11,10,25,11.90
2018,06,11,10,26,11.80
2018,06,11,10,27,11.80
2018,06,11,10,28,11.80
2018,06,11,10,29,11.80
2018,06,11,10,30,11.90
2018,06,11,10,31,11.90
2018,06,11,10,32,11.90
2018,06,11,10,33,11.90
2018,06,11,10,34,11.90
2018,06,11,10,35,11.90
2018,06,11,10,36,12.00
2018,06,11,10,37,12.10
2018,06,11,10,38,12.20
2018,06,11,10,39,12.20
2018,06,11,10,40,12.20
2018,06,11,10,41,12.30
2018,06,11,10,42,12.40
2018,06,11,10,43,12.50
2018,06,11,10,44,12.60
2018,06,11,10,45,12.70
2018,06,11,10,46,12.70
2018,06,11,10,47,12.70
2018,06,11,10,48,12.70
2018,06,11,10,49,12.70
2018,06,11,10,50,12.80
2018,06,11,10,51,12.80
2018,06,11,10,52,12.90
2018,06,11,10,53,12.90
2018,06,11,10,54,13.00
2018,06,11,10,55,12.90
2018,06,11,10,56,12.90
2018,06,11,10,57,12.90
2018,06,11,10,58,13.00
2018,06,11,10,59,13.00
2018,06,11,11,00,13.00
2018,06,11,11,01,13.10
2018,06,11,11,02,13.10
2018,06,11,11,03,13.10
2018,06,11,11,04,13.20
2018,06,11,11,05,13.20
2018,06,11,11,06,13.30
2018,06,11,11,07,13.30
2018,06,11,11,08,13.30
2018,06,11,11,09,13.30
2018,06,11,11,10,13.30
2018,06,11,11,11,13.40
2018,06,11,11,12,13.50
2018,06,11,11,13,13.60
2018,06,11,11,14,13.60
2018,06,11,11,15,13.70
2018,06,11,11,16,13.90
2018,06,11,11,17,14.00
2018,06,11,11,18,14.10
2018,06,11,11,19,14.10
2018,06,11,11,20,14.10
2018,06,11,11,21,14.20
2018,06,11,11,22,14.20
2018,06,11,11,23,14.20
2018,06,11,11,24,14.20
2018,06,11,11,25,14.20
2018,06,11,11,26,14.20
2018,06,11,11,27,14.20
2018,06,11,11,28,14.20
2018,06,11,11,29,14.20
2018,06,11,11,30,14.20
2018,06,11,11,31,14.20
2018,06,11,12,22,16.80
2018,06,11,12,23,16.80
2018,06,11,12,24,16.70
2018,06,11,12,25,16.70
2018,06,11,12,26,16.80
2018,06,11,12,27,16.80
2018,06,11,12,28,16.80
2018,06,11,12,29,16.80
2018,06,11,12,30,16.80
2018,06,11,12,31,16.80
2018,06,11,12,32,16.80
2018,06,11,12,33,16.80
2018,06,11,12,34,16.80
2018,06,11,12,35,16.90
2018,06,11,12,36,16.80
2018,06,11,12,37,16.80
2018,06,11,12,38,16.80
2018,06,11,12,39,16.70
2018,06,11,12,40,16.70
2018,06,11,12,41,16.80
2018,06,11,12,42,16.90
2018,06,11,12,43,17.00
2018,06,11,12,44,17.10
2018,06,11,12,45,17.10
2018,06,11,12,46,17.10
2018,06,11,12,47,17.10
2018,06,11,12,48,17.10
2018,06,11,12,49,17.10
2018,06,11,12,50,17.10
2018,06,11,12,51,17.10
2018,06,11,12,52,17.20
2018,06,11,12,53,17.20
2018,06,11,12,54,17.10
2018,06,11,12,55,17.20
2018,06,11,12,56,17.20
2018,06,11,12,57,17.10
2018,06,11,12,58,17.10
2018,06,11,12,59,17.20
2018,06,11,13,00,17.20
2018,06,11,13,01,17.30
2018,06,11,13,02,17.20
2018,06,11,13,03,17.20
2018,06,11,13,04,17.20
2018,06,11,13,05,17.40
2018,06,11,13,06,17.40
2018,06,11,13,07,17.50
2018,06,11,13,08,17.50
2018,06,11,13,09,17.40
2018,06,11,13,10,17.40
2018,06,11,13,11,17.40
2018,06,11,13,12,17.40
2018,06,11,13,13,17.40
2018,06,11,13,14,17.40
2018,06,11,13,15,17.50
2018,06,11,13,16,17.60
2018,06,11,13,17,17.60
2018,06,11,13,18,17.70
2018,06,11,13,19,17.80
2018,06,11,13,20,17.90
2018,06,11,13,21,17.80
2018,06,11,13,22,17.80
2018,06,11,13,23,17.90
2018,06,11,13,24,17.90
2018,06,11,13,25,18.00
2018,06,11,13,26,18.00
2018,06,11,13,27,18.00
2018,06,11,13,28,17.90
2018,06,11,13,29,17.90
2018,06,11,13,30,17.90
2018,06,11,13,31,17.90
2018,06,11,13,32,17.80
2018,06,11,13,33,17.80
2018,06,11,13,34,17.70
2018,06,11,13,35,17.70
2018,06,11,13,36,17.70
2018,06,11,13,37,17.70
2018,06,11,13,38,17.70
2018,06,11,13,39,17.70
2018,06,11,13,40,17.80
2018,06,11,13,41,17.80
2018,06,11,13,42,17.80
2018,06,11,13,43,17.80
2018,06,11,13,44,17.90
2018,06,11,13,45,18.00
2018,06,11,13,46,18.00
2018,06,11,13,47,18.10
2018,06,11,13,48,18.20
2018,06,11,13,49,18.30
2018,06,11,13,50,18.30
2018,06,11,13,51,18.20
2018,06,11,13,52,18.20
2018,06,11,13,53,18.20
2018,06,11,13,54,18.20
2018,06,11,13,55,18.20
2018,06,11,13,56,18.20
2018,06,11,13,57,18.20
2018,06,11,13,58,18.30
2018,06,11,13,59,18.40
2018,06,11,14,00,18.40
2018,06,11,14,01,18.40
2018,06,11,14,02,18.40
2018,06,11,14,03,18.30
2018,06,11,14,04,18.20
2018,06,11,14,05,18.20
2018,06,11,14,06,18.10
2018,06,11,14,07,18.10
2018,06,11,14,08,18.20
2018,06,11,14,09,18.30
2018,06,11,14,10,18.40
2018,06,11,14,11,18.40
2018,06,11,14,12,18.50
2018,06,11,14,13,18.60
2018,06,11,14,14,18.60
2018,06,11,14,15,18.70
2018,06,11,14,16,18.80
2018,06,11,14,17,18.80
2018,06,11,14,18,18.70
2018,06,11,14,19,18.60
2018,06,11,14,20,18.60
2018,06,11,14,21,18.60
2018,06,11,14,22,18.60
2018,06,11,14,23,18.60
2018,06,11,14,24,18.60
2018,06,11,14,25,18.60
2018,06,11,14,26,18.50
2018,06,11,14,27,18.50
2018,06,11,14,28,18.60
2018,06,11,14,29,18.80
2018,06,11,14,30,18.90
2018,06,11,14,31,19.00
2018,06,11,14,32,18.90
2018,06,11,14,33,18.80
2018,06,11,14,34,18.70
2018,06,11,14,35,18.60
2018,06,11,14,36,18.60
2018,06,11,14,37,18.60
2018,06,11,14,38,18.60
2018,06,11,14,39,18.70
2018,06,11,14,40,18.60
2018,06,11,14,41,18.60
2018,06,11,14,42,18.60
2018,06,11,14,43,18.60
2018,06,11,14,44,18.50
2018,06,11,14,45,18.50
2018,06,11,14,46,18.60
2018,06,11,14,47,18.70
2018,06,11,14,48,18.60
2018,06,11,14,49,18.60
2018,06,11,14,50,18.70
2018,06,11,14,51,18.70
2018,06,11,14,52,18.70
2018,06,11,14,53,18.60
2018,06,11,14,54,18.60
2018,06,11,14,55,18.60
2018,06,11,14,56,18.60
2018,06,11,14,57,18.60
2018,06,11,14,58,18.60
2018,06,11,14,59,18.60
2018,06,11,15,00,18.60
2018,06,11,15,01,18.60
2018,06,11,15,02,18.70
2018,06,11,15,03,18.80
2018,06,11,15,04,18.80
2018,06,11,15,05,18.70
2018,06,11,15,06,18.60
2018,06,11,15,07,18.60
2018,06,11,15,08,18.70
2018,06,11,15,09,18.70
2018,06,11,15,10,18.80
2018,06,11,15,11,18.80
2018,06,11,15,12,18.90
2018,06,11,15,13,18.90
2018,06,11,15,14,18.90
2018,06,11,15,15,18.90
2018,06,11,15,16,18.80
2018,06,11,15,17,18.70
2018,06,11,15,18,18.70
2018,06,11,15,19,18.70
2018,06,11,15,20,18.80
2018,06,11,15,21,18.80
2018,06,11,15,22,18.80
2018,06,11,15,23,18.80
2018,06,11,15,24,18.80
2018,06,11,15,25,18.80
2018,06,11,15,26,18.80
2018,06,11,15,27,18.80
2018,06,11,15,28,18.90
2018,06,11,15,29,19.00
2018,06,11,15,30,19.10
2018,06,11,15,31,19.10
2018,06,11,15,32,19.10
2018,06,11,15,33,19.00
2018,06,11,15,34,18.90
2018,06,11,15,35,18.80
2018,06,11,15,36,18.70
2018,06,11,15,37,18.70
2018,06,11,15,38,18.70
2018,06,11,15,39,18.70
2018,06,11,15,40,18.70
2018,06,11,15,41,18.70
2018,06,11,15,42,18.80
2018,06,11,15,43,18.90
2018,06,11,15,44,18.90
2018,06,11,15,45,18.90
2018,06,11,15,46,18.90
2018,06,11,15,47,18.90
2018,06,11,15,48,18.80
2018,06,11,15,49,18.70
2018,06,11,15,50,18.60
2018,06,11,15,51,18.60
2018,06,11,15,52,18.50
2018,06,11,15,53,18.40
2018,06,11,15,54,18.40
2018,06,11,15,55,18.40
2018,06,11,15,56,18.40
2018,06,11,15,57,18.30
2018,06,11,15,58,18.30
2018,06,11,15,59,18.30
2018,06,11,16,00,18.30
2018,06,11,16,01,18.30
2018,06,11,16,02,18.30
2018,06,11,16,03,18.20
2018,06,11,16,04,18.20
2018,06,11,16,05,18.10
2018,06,11,16,06,18.10
2018,06,11,16,07,18.10
2018,06,11,16,08,18.10
2018,06,11,16,09,18.10
2018,06,11,16,10,18.10
2018,06,11,16,11,18.10
2018,06,11,16,12,18.00
2018,06,11,16,13,18.00
2018,06,11,16,14,18.00
2018,06,11,16,15,18.00
2018,06,11,16,16,18.00
2018,06,11,16,17,17.90
2018,06,11,16,18,17.90
2018,06,11,16,19,17.90
2018,06,11,16,20,17.90
2018,06,11,16,21,18.00
2018,06,11,16,22,18.00
2018,06,11,16,23,18.00
2018,06,11,16,24,18.00
2018,06,11,16,25,18.00
2018,06,11,16,26,18.00
2018,06,11,16,27,18.00
2018,06,11,16,28,18.00
2018,06,11,16,29,18.00
2018,06,11,16,30,18.00
2018,06,11,16,31,18.00
2018,06,11,16,32,18.00
2018,06,11,16,33,18.00
2018,06,11,16,34,18.00
2018,06,11,16,35,18.10
2018,06,11,16,36,18.10
2018,06,11,16,37,18.10
2018,06,11,16,38,18.20
2018,06,11,16,39,18.30
2018,06,11,16,40,18.30
2018,06,11,16,41,18.30
2018,06,11,16,42,18.30
2018,06,11,16,43,18.20
2018,06,11,16,44,18.20
2018,06,11,16,45,18.30
2018,06,11,16,46,18.40
2018,06,11,16,47,18.40
2018,06,11,16,48,18.30
2018,06,11,16,49,18.20
2018,06,11,16,50,18.20
2018,06,11,16,51,18.20
2018,06,11,16,52,18.20
2018,06,11,16,53,18.10
2018,06,11,16,54,18.10
2018,06,11,16,55,18.10
2018,06,11,16,56,18.20
2018,06,11,16,57,18.20
2018,06,11,16,58,18.20
2018,06,11,16,59,18.30
2018,06,11,17,00,18.30
2018,06,11,17,01,18.30
2018,06,11,17,02,18.30
2018,06,11,17,03,18.30
2018,06,11,17,04,18.30
2018,06,11,17,05,18.30
2018,06,11,17,06,18.20
2018,06,11,17,07,18.20
2018,06,11,17,08,18.20
2018,06,11,17,09,18.20
2018,06,11,17,10,18.30
2018,06,11,17,11,18.30
2018,06,11,17,12,18.40
2018,06,11,17,13,18.40
2018,06,11,17,14,18.40
2018,06,11,17,15,18.40
2018,06,11,17,16,18.30
2018,06,11,17,17,18.20
2018,06,11,17,18,18.20
2018,06,11,17,19,18.10
2018,06,11,17,20,18.10
2018,06,11,17,21,18.10
2018,06,11,17,22,18.10
2018,06,11,17,23,18.10
2018,06,11,17,24,18.10
2018,06,11,17,25,18.10
2018,06,11,17,26,18.10
2018,06,11,17,27,18.10
2018,06,11,17,28,18.10
2018,06,11,17,29,18.10
2018,06,11,17,30,18.10
2018,06,11,17,31,18.10
2018,06,11,17,32,18.00
2018,06,11,17,33,17.90
2018,06,11,17,34,17.90
2018,06,11,17,35,17.90
2018,06,11,17,36,17.90
2018,06,11,17,37,17.90
2018,06,11,17,38,17.80
2018,06,11,17,39,17.60
2018,06,11,17,40,17.50
2018,06,11,17,41,17.50
2018,06,11,17,42,17.50
2018,06,11,17,43,17.40
2018,06,11,17,44,17.40
2018,06,11,17,45,17.40
2018,06,11,17,46,17.40
2018,06,11,17,47,17.40
2018,06,11,17,48,17.40
2018,06,11,17,49,17.40
2018,06,11,17,50,17.40
2018,06,11,17,51,17.40
2018,06,11,17,52,17.40
2018,06,11,17,53,17.40
2018,06,11,17,54,17.40
2018,06,11,17,55,17.40
2018,06,11,17,56,17.50
2018,06,11,17,57,17.50
2018,06,11,17,58,17.60
2018,06,11,17,59,17.70
2018,06,11,18,00,17.80
2018,06,11,18,01,17.80
2018,06,11,18,02,17.90
2018,06,11,18,03,18.00
2018,06,11,18,04,18.00
2018,06,11,18,05,18.00
2018,06,11,18,06,18.00
2018,06,11,18,07,17.90
2018,06,11,18,08,17.80
2018,06,11,18,09,17.80
2018,06,11,18,10,17.70
2018,06,11,18,11,17.70
2018,06,11,18,12,17.60
2018,06,11,18,13,17.50
2018,06,11,18,14,17.40
2018,06,11,18,15,17.40
2018,06,11,18,16,17.40
2018,06,11,18,17,17.30
2018,06,11,18,18,17.30
2018,06,11,18,19,17.30
2018,06,11,18,20,17.30
2018,06,11,18,21,17.30
2018,06,11,18,22,17.30
2018,06,11,18,23,17.30
2018,06,11,18,24,17.30
2018,06,11,18,25,17.30
2018,06,11,18,26,17.30
2018,06,11,18,27,17.30
2018,06,11,18,28,17.30
2018,06,11,18,29,17.30
2018,06,11,18,30,17.20
2018,06,11,18,31,17.20
2018,06,11,18,32,17.20